Temperature
17 17 17 16 16 16 16 16 16 16 16 16 15 15 15 15 15 15 15 15 15 14 14 14 14 14 15 14 14 14 14 14 14 14 13 13 13 13 13 13 13 13 13
17 17 17 16 16 16 16 16 16 16 16 15 15 15 15 15 15 15 15 15 15 14 14 14 14 14 14 14 14 14 14 14 14 14 13 13 13 13 13 13 13 13 13
17 17 17 16 16 16 16 16 16 16 16 15 15 15 15 15 15 15 15 14 14 14 14 14 14 14 14 14 14 14 14 14 13 13 13 13 13 13 12 12 12 12 12
17 17 17 16 16 16 16 16 16 16 16 15 15 15 15 15 15 15 14 14 14 14 14 14 14 14 14 14 14 14 13 13 13 13 13 13 12 12 12 12 12 12 12
17 17 17 16 16 16 16 16 16 16 15 15 15 15 15 15 15 14 14 14 14 14 14 14 14 14 14 14 14 14 13 13 13 13 13 12 12 12 12 12 12 11 11
17 17 17 16 16 16 16 16 16 15 15 15 15 15 15 15 14 14 14 14 14 14 14 13 13 13 13 13 13 13 13 13 13 13 12 12 12 12 12 11 11 11 11
17 17 17 16 16 16 16 16 15 15 15 15 15 15 14 14 14 14 14 14 14 13 13 13 13 13 13 13 13 13 13 13 12 12 12 12 12 12 11 11 11 11 11
17 17 16 16 16 16 16 16 15 15 15 15 14 14 14 14 14 14 14 14 13 13 13 13 13 13 13 13 13 12 12 12 12 12 12 12 12 11 11 11 11 11 11
17 17 17 17 16 16 16 16 15 15 15 15 14 14 14 14 14 14 14 13 13 13 13 13 13 13 12 12 12 12 12 12 12 11 11 11 11 11 11 11 10 10 10
17 17 16 16 16 16 16 15 15 15 15 14 14 14 14 14 13 13 13 13 13 13 13 13 12 12 12 12 12 12 11 11 11 11 11 11 11 11 11 10 10 10 10
17 16 16 16 16 16 16 15 15 15 14 14 14 14 14 13 13 13 13 13 13 12 12 12 12 12 12 12 11 11 11 11 11 10 10 10 10 10 10 10 10 9 9
17 16 16 16 16 16 15 15 15 14 14 14 14 14 13 13 13 13 13 13 12 12 12 12 12 11 11 11 11 11 11 10 10 10 10 10 10 10 9 9 9 9 9
17 16 16 16 16 15 15 15 14 14 14 14 13 13 13 13 13 13 12 12 12 12 12 11 11 11 11 11 11 10 10 10 10 10 9 9 9 9 9 9 9 8 8
16 16 16 16 15 15 15 14 14 14 14 13 13 13 13 12 12 12 12 12 12 11 11 11 11 10 10 10 10 10 10 10 9 9 9 9 9 8 8 8 8 7 7
16 16 15 15 15 15 14 14 14 14 14 13 13 13 13 12 12 12 12 11 11 11 11 10 10 10 10 10 10 9 9 9 9 9 8 8 8 8 8 7 7 7 7
15 15 15 15 14 14 14 14 13 13 13 13 13 12 12 12 12 11 11 11 11 11 10 10 10 10 9 9 9 9 9 8 8 8 8 7 7 7 7 7 6 6 6
15 15 15 14 14 14 14 13 13 13 13 12 12 12 12 11 11 11 11 10 10 10 10 9 9 9 9 9 8 8 8 8 7 7 7 7 6 6 6 6 6 6 5
15 15 14 14 14 13 13 13 13 13 12 12 12 12 11 11 11 11 10 10 10 9 9 9 9 9 8 8 8 8 7 7 7 6 6 6 6 6 5 5 5 5 5
15 14 14 14 13 13 13 12 12 12 12 12 12 11 11 11 10 10 10 9 9 9 9 8 8 8 8 8 7 7 7 6 6 6 6 5 5 5 5 5 4 4 4
14 14 14 13 13 13 12 12 12 11 11 11 11 11 11 10 10 10 9 9 9 8 8 8 8 8 7 7 7 6 6 6 5 5 5 5 5 4 4 4 4 4 3
14 13 13 13 12 12 12 11 11 11 11 11 10 10 10 9 9 9 9 9 8 8 8 8 7 7 7 6 6 6 5 5 5 4 4 4 4 4 4 4 3 3 3
13 13 12 12 12 12 11 11 11 10 10 10 10 9 9 9 9 8 8 8 8 7 7 7 7 6 6 6 5 5 5 4 4 4 4 4 3 3 3 3 3 2 2
12 12 12 11 11 11 11 10 10 10 10 9 9 9 9 8 8 8 7 7 7 7 6 6 6 6 5 5 5 4 4 4 4 3 3 3 3 3 2 2 2 2 1
12 11 11 11 11 10 10 10 9 9 9 9 8 8 8 8 7 7 7 6 6 6 6 5 5 5 5 4 4 4 3 3 3 3 3 2 2 2 1 1 1 1 1
11 11 10 10 10 10 9 9 9 8 8 8 8 7 7 7 7 6 6 6 5 5 5 5 4 4 4 4 3 3 3 3 2 2 2 2 1 1 1 1 1 0 0
10 10 10 9 9 9 9 8 8 8 8 7 7 7 6 6 6 6 5 5 5 5 4 4 4 3 3 3 3 2 2 2 2 2 1 1 1 0 0 0 0 -0 -0
Wind_Speed
5 4 4 3 3 3 2 2 1 2 2 1 2 3 3 3 3 2 2 2 2 1 2 3 3 2 2 2 2 2 2 2 2 0 1 1 2 1 1 1 2 3 2
5 5 5 4 4 3 3 2 2 3 2 2 1 2 2 2 2 3 2 2 2 2 2 2 2 2 2 1 2 2 1 1 2 1 1 1 1 0 0 1 1 0 1
6 6 5 5 4 3 3 3 2 2 2 2 2 2 2 2 2 2 2 1 2 2 1 2 1 2 1 1 1 1 1 1 1 1 1 0 1 1 1 1 1 1 2
6 5 5 5 4 3 3 3 2 2 2 1 2 2 2 2 2 1 1 1 1 1 1 1 1 2 2 1 1 1 1 1 1 0 0 0 1 1 1 1 2 2 2
7 6 5 5 4 4 4 3 2 2 2 1 2 2 2 2 1 2 1 0 0 0 1 1 2 3 4 3 2 2 2 1 1 1 1 1 1 1 1 1 2 2 2
8 6 5 5 4 4 4 3 3 2 1 1 2 3 2 2 3 3 2 2 1 1 0 1 2 2 3 3 3 2 2 1 0 1 1 1 1 1 1 1 1 2 3
8 7 6 5 5 5 4 3 3 3 2 1 1 2 2 2 3 2 1 1 2 1 1 1 0 1 2 1 1 1 1 1 1 1 1 2 2 2 2 2 2 2 3
7 7 6 6 5 5 4 4 3 3 3 3 2 2 2 3 4 2 1 1 1 2 2 1 0 1 1 1 1 1 1 2 2 1 2 2 2 2 2 2 3 3 3
7 7 6 6 6 6 5 4 3 3 3 3 3 3 3 3 4 4 3 1 1 2 2 1 1 1 1 2 1 1 1 2 3 4 4 4 5 5 4 2 3 3 4
7 6 6 6 6 6 6 5 4 3 4 3 3 4 4 4 5 5 5 2 2 2 2 1 1 1 1 1 0 1 3 4 3 3 4 5 6 6 6 3 3 2 3
6 6 6 6 6 6 5 4 4 4 4 3 4 4 4 4 5 7 6 3 2 2 2 2 2 2 2 2 2 2 4 5 3 3 4 4 3 3 3 4 3 3 4
6 6 6 6 6 6 5 4 4 4 4 4 3 3 3 3 5 6 7 6 3 2 2 1 1 2 3 4 4 5 7 6 3 3 3 4 3 4 3 4 6 7 7
7 6 6 6 5 5 5 5 4 4 3 3 3 3 3 2 3 6 7 7 5 3 2 1 1 2 3 4 6 7 5 3 3 3 4 4 4 4 3 3 4 6 7
7 6 5 5 5 4 3 3 3 3 3 3 3 2 2 1 1 1 2 3 4 3 3 3 4 4 4 4 5 5 4 3 4 5 5 5 4 3 3 3 3 3 4
6 5 5 4 5 4 3 2 3 2 4 4 3 3 2 2 2 3 3 2 2 3 2 2 2 2 3 3 3 3 3 3 4 4 4 4 4 4 4 3 3 3 4
5 5 4 4 4 4 4 2 2 2 3 4 3 3 2 3 3 3 4 3 2 2 1 2 3 3 3 3 3 3 3 3 3 3 3 4 4 4 4 4 3 4 5
4 4 4 4 4 4 4 4 2 1 2 2 2 2 3 3 3 3 3 3 2 2 2 2 3 3 3 3 3 3 3 3 2 2 3 4 4 4 5 5 4 4 5
3 4 4 3 4 4 4 4 4 4 2 1 1 3 4 4 3 3 3 2 1 1 2 2 3 2 3 3 3 3 3 3 2 3 4 4 4 4 5 5 5 6 6
2 2 3 3 3 3 3 3 3 3 3 2 2 1 3 3 2 2 2 1 2 2 2 3 3 3 3 3 3 3 3 3 3 3 4 4 4 5 5 6 6 8 7
2 3 3 2 2 2 2 2 2 2 2 2 2 2 2 2 1 2 2 2 2 2 2 3 3 3 2 2 2 2 3 3 4 4 4 4 4 5 6 7 7 7 7
2 3 3 2 2 2 2 2 2 2 2 2 2 2 3 2 3 3 3 3 3 3 2 2 2 2 2 2 2 3 3 3 4 4 4 5 5 5 6 6 6 7 7
2 2 2 2 1 1 2 1 1 2 2 2 1 2 3 2 2 2 3 3 3 3 2 2 2 1 1 1 2 3 3 4 4 4 4 5 5 6 6 6 6 7 7
2 2 2 2 2 2 2 1 1 2 1 1 1 1 2 2 2 2 2 2 1 1 1 1 1 1 2 2 2 2 3 3 4 4 5 5 5 6 6 7 8 9 9
2 2 2 2 2 2 1 1 1 1 1 1 1 1 1 2 1 1 1 1 0 1 1 1 1 2 2 3 3 4 3 5 6 6 6 6 7 7 7 8 9 10 10
1 1 1 1 1 1 1 0 0 0 0 0 0 0 1 1 1 1 1 1 1 1 2 3 3 3 3 3 4 4 6 8 8 8 8 7 7 8 8 9 9 10 10
1 1 1 1 1 1 1 0 0 0 0 1 1 1 1 1 1 1 1 1 1 2 2 3 4 4 3 3 3 5 7 9 10 11 10 8 8 8 9 8 10 10 11
Wind_Direction
171 158 145 152 147 151 152 133 132 125 160 166 141 133 127 126 127 115 110 91 105 109 104 100 90 71 47 35 37 45 44 79 115 353 43 92 89 70 73 136 154 140 91
170 158 159 162 161 168 166 165 177 162 171 175 155 122 117 114 122 132 137 118 98 79 70 88 95 94 81 47 40 53 58 82 120 128 349 26 55 102 31 333 10 97 149
167 166 163 158 168 180 170 172 187 168 177 173 136 121 121 112 109 115 125 130 117 104 87 76 72 86 90 82 74 45 32 42 92 141 214 352 357 347 10 342 347 334 298
163 163 163 166 170 173 163 167 182 179 165 152 133 126 121 113 101 96 93 88 96 108 107 95 71 74 65 51 57 19 28 21 10 70 151 327 317 309 36 331 323 304 299
162 168 173 170 163 163 157 164 175 171 156 154 129 119 113 109 72 48 28 73 92 156 153 132 112 103 86 75 63 28 28 23 358 4 339 350 331 351 316 285 294 298 299
165 172 172 166 160 164 159 156 160 150 151 145 138 133 131 114 91 73 40 345 321 282 205 156 147 126 127 116 101 81 68 73 8 357 329 296 295 299 304 314 318 332 309
167 168 167 166 164 159 157 160 164 158 149 143 139 137 141 134 128 121 85 325 318 314 313 289 215 148 129 149 186 207 276 304 235 209 246 264 273 290 314 320 307 290 267
166 166 165 164 163 159 163 170 171 167 172 176 177 174 160 154 154 151 172 257 301 320 308 281 178 104 89 109 146 212 226 255 246 229 231 258 270 286 274 272 267 281 284
166 169 170 167 165 165 170 174 172 178 185 182 188 189 180 180 177 173 164 221 258 277 303 353 56 101 43 61 41 307 293 278 264 251 244 263 279 289 296 319 309 304 295
164 168 166 163 164 169 173 175 172 183 192 184 194 196 192 188 180 176 175 197 237 245 245 229 104 113 105 73 334 299 289 285 288 289 284 283 277 274 269 244 238 262 282
159 158 156 157 163 165 169 174 172 179 185 192 202 201 199 190 182 179 178 198 231 245 242 225 214 190 194 233 258 255 272 291 288 284 281 274 271 263 263 257 246 232 250
150 151 156 159 164 168 166 172 172 175 185 198 206 205 202 192 185 189 192 207 230 241 254 234 223 208 235 251 257 272 287 297 292 288 283 282 277 269 260 256 252 251 249
148 153 158 156 154 153 158 167 172 176 181 196 203 210 207 194 185 189 198 215 234 242 246 223 267 269 263 258 260 271 279 272 269 269 270 269 263 266 277 284 277 272 272
150 154 154 154 153 154 152 160 163 173 183 193 199 204 203 164 147 168 195 211 223 240 247 252 264 263 261 261 266 266 253 248 248 251 259 263 267 273 273 272 273 277 280
154 153 155 154 153 149 136 138 163 174 181 186 199 196 188 191 207 174 169 190 203 220 230 228 235 246 250 256 254 252 249 258 264 266 271 278 279 276 270 261 261 266 270
159 159 158 154 151 147 143 125 83 128 142 162 169 170 176 186 181 172 184 197 209 214 195 230 243 247 250 254 260 267 261 256 260 273 279 281 283 284 285 282 274 268 271
156 152 148 152 157 160 160 162 162 77 67 106 134 152 174 181 182 188 200 214 221 196 209 239 247 255 265 267 264 266 271 268 261 265 275 279 281 286 289 287 284 280 278
142 146 147 153 158 166 174 178 177 175 177 207 237 210 196 186 189 199 191 152 189 210 230 244 258 266 271 273 273 274 280 288 284 277 275 279 280 281 284 284 283 281 281
118 123 125 133 152 170 174 175 176 179 177 179 172 207 207 186 183 205 177 197 216 230 240 251 260 269 275 276 280 286 288 285 285 285 283 281 280 280 280 278 280 281 280
121 136 139 147 163 171 170 170 178 183 186 184 184 185 170 157 177 205 212 232 233 240 244 252 262 271 279 289 295 296 297 299 298 294 289 286 285 283 280 279 278 280 279
127 139 150 159 170 165 159 166 174 173 183 190 192 177 163 181 202 212 214 223 233 240 245 254 262 275 284 294 297 299 301 300 299 299 300 299 295 295 291 286 283 280 283
135 149 160 166 156 150 150 160 178 186 189 197 190 173 172 185 211 219 221 227 229 235 239 248 264 262 266 272 288 293 295 300 305 309 307 305 305 304 305 302 297 293 289
150 159 162 161 157 160 173 190 192 190 188 185 166 155 187 216 226 228 229 236 240 239 271 282 271 306 319 330 329 312 301 303 309 309 306 305 306 306 305 302 299 297 294
155 166 170 164 160 161 177 197 183 170 177 174 172 199 220 234 241 242 244 259 300 334 336 341 324 314 327 345 345 343 343 333 326 318 309 302 300 298 298 296 294 291 289
148 152 151 148 141 146 163 161 116 85 60 41 349 315 315 305 308 333 335 355 3 2 5 359 352 349 349 357 355 355 345 332 321 317 312 301 294 293 291 290 291 292 290
133 130 117 103 99 102 114 127 121 59 56 41 22 13 11 19 12 352 6 23 16 5 357 356 347 344 345 355 358 345 334 327 321 317 312 301 292 291 291 291 292 292 292
Height
1554 1555 1556 1558 1559 1559 1560 1561 1561 1561 1561 1561 1562 1562 1562 1562 1562 1562 1563 1563 1563 1564 1564 1564 1564 1564 1564 1564 1565 1565 1565 1566 1565 1566 1566 1565 1564 1563 1562 1561 1560 1559 1558
1552 1554 1555 1556 1558 1558 1559 1560 1560 1561 1561 1561 1562 1562 1562 1562 1562 1563 1563 1563 1564 1564 1564 1564 1564 1565 1565 1565 1565 1565 1565 1565 1565 1565 1565 1564 1564 1563 1562 1561 1560 1559 1558
1551 1552 1554 1555 1556 1557 1558 1559 1559 1560 1560 1561 1561 1561 1561 1562 1562 1562 1563 1563 1563 1564 1564 1564 1564 1565 1564 1564 1564 1564 1565 1565 1565 1564 1564 1564 1563 1562 1561 1560 1559 1558 1557
1549 1550 1552 1553 1555 1556 1557 1557 1558 1559 1559 1560 1560 1560 1560 1561 1561 1562 1562 1563 1563 1563 1563 1564 1564 1564 1564 1564 1564 1564 1564 1564 1564 1563 1563 1562 1562 1561 1560 1559 1557 1557 1556
1546 1548 1550 1552 1553 1554 1555 1556 1556 1557 1558 1558 1559 1559 1559 1560 1560 1561 1561 1562 1562 1562 1563 1563 1563 1563 1563 1563 1563 1563 1563 1562 1562 1562 1561 1561 1560 1559 1558 1557 1556 1555 1554
1544 1546 1548 1550 1551 1552 1553 1554 1555 1555 1556 1557 1557 1557 1558 1558 1559 1559 1560 1560 1561 1561 1561 1562 1562 1562 1562 1561 1561 1561 1561 1561 1560 1560 1559 1559 1558 1557 1556 1555 1554 1553 1551
1542 1544 1546 1547 1549 1550 1551 1552 1553 1553 1554 1555 1555 1556 1556 1556 1557 1558 1558 1558 1559 1559 1560 1560 1560 1560 1560 1560 1559 1559 1559 1559 1559 1558 1557 1556 1556 1555 1554 1553 1551 1550 1549
1539 1541 1543 1545 1546 1547 1549 1549 1550 1551 1552 1552 1553 1554 1554 1555 1555 1556 1556 1557 1557 1557 1558 1558 1558 1558 1558 1557 1557 1557 1556 1556 1556 1555 1555 1554 1553 1552 1551 1550 1549 1547 1546
1537 1539 1541 1542 1544 1545 1546 1547 1548 1549 1550 1550 1551 1552 1552 1553 1553 1554 1554 1555 1555 1555 1556 1556 1556 1555 1555 1555 1555 1554 1554 1553 1553 1552 1552 1551 1550 1549 1548 1547 1545 1544 1541
1534 1536 1538 1540 1541 1542 1543 1545 1546 1546 1547 1548 1549 1549 1550 1551 1551 1552 1552 1552 1552 1552 1553 1553 1553 1553 1553 1552 1552 1551 1550 1550 1549 1549 1548 1547 1546 1545 1544 1543 1542 1540 1538
1532 1534 1536 1537 1539 1540 1541 1542 1543 1544 1545 1546 1546 1547 1548 1548 1549 1549 1549 1549 1549 1549 1549 1549 1549 1549 1549 1549 1548 1548 1547 1546 1546 1545 1543 1542 1542 1541 1540 1539 1538 1537 1535
1529 1531 1533 1535 1536 1538 1539 1540 1541 1542 1542 1543 1544 1544 1545 1545 1546 1546 1547 1547 1547 1546 1546 1546 1546 1546 1545 1545 1545 1544 1543 1543 1542 1540 1539 1538 1537 1536 1535 1534 1533 1532 1531
1527 1529 1531 1532 1534 1535 1536 1537 1538 1539 1540 1540 1541 1541 1541 1542 1542 1543 1543 1543 1543 1543 1543 1543 1543 1542 1542 1541 1541 1540 1540 1539 1537 1536 1535 1534 1533 1532 1531 1530 1528 1527 1525
1525 1527 1528 1530 1531 1533 1534 1535 1535 1536 1537 1537 1538 1538 1538 1539 1538 1539 1539 1539 1539 1539 1539 1539 1539 1538 1538 1537 1537 1536 1535 1535 1533 1532 1531 1530 1529 1527 1526 1525 1523 1521 1519
1523 1524 1526 1527 1528 1530 1531 1532 1533 1534 1534 1535 1535 1535 1536 1535 1536 1536 1536 1536 1536 1536 1535 1535 1534 1534 1533 1533 1532 1532 1531 1530 1529 1528 1526 1525 1524 1522 1521 1519 1518 1516 1514
1520 1522 1523 1524 1526 1527 1528 1529 1530 1531 1532 1532 1532 1533 1532 1533 1533 1533 1533 1533 1532 1532 1532 1531 1530 1530 1529 1529 1528 1527 1527 1526 1524 1523 1522 1520 1518 1517 1515 1514 1512 1510 1508
1518 1519 1521 1522 1523 1524 1524 1525 1526 1527 1528 1529 1529 1529 1529 1529 1529 1529 1529 1529 1529 1528 1528 1527 1527 1526 1526 1525 1524 1523 1522 1521 1520 1518 1517 1515 1513 1511 1510 1508 1506 1504 1502
1516 1517 1518 1519 1520 1521 1522 1523 1523 1524 1524 1525 1526 1526 1526 1526 1526 1526 1526 1525 1525 1524 1524 1523 1523 1522 1522 1521 1520 1519 1518 1516 1515 1514 1512 1510 1508 1506 1504 1502 1500 1498 1496
1513 1514 1516 1517 1517 1518 1519 1520 1521 1521 1522 1522 1522 1522 1522 1522 1522 1522 1521 1521 1520 1520 1520 1519 1519 1518 1517 1516 1515 1514 1513 1511 1510 1508 1507 1505 1503 1501 1498 1496 1494 1492 1490
1510 1512 1513 1514 1515 1516 1517 1517 1518 1518 1518 1518 1518 1518 1518 1518 1517 1517 1517 1516 1516 1515 1515 1515 1514 1514 1513 1512 1510 1509 1508 1506 1504 1503 1501 1499 1497 1495 1492 1490 1488 1485 1483
1507 1509 1510 1511 1512 1513 1514 1514 1515 1515 1515 1515 1515 1515 1515 1514 1514 1513 1513 1512 1512 1511 1511 1510 1509 1508 1508 1506 1505 1504 1502 1500 1499 1497 1495 1493 1491 1488 1486 1483 1481 1479 1476
1504 1506 1507 1508 1509 1510 1510 1511 1511 1512 1512 1512 1512 1512 1512 1511 1510 1510 1509 1508 1508 1507 1507 1506 1505 1504 1503 1502 1500 1498 1497 1495 1493 1491 1489 1486 1484 1482 1479 1476 1474 1472 1469
1502 1503 1504 1505 1506 1506 1507 1508 1508 1508 1509 1509 1509 1508 1508 1507 1506 1506 1505 1505 1504 1503 1503 1502 1500 1499 1498 1497 1495 1493 1491 1489 1487 1485 1483 1480 1478 1475 1473 1470 1467 1465 1462
1499 1500 1501 1502 1503 1503 1504 1504 1505 1505 1505 1505 1505 1504 1504 1503 1503 1502 1501 1501 1500 1499 1498 1497 1496 1494 1493 1491 1489 1488 1486 1484 1482 1479 1477 1474 1471 1468 1466 1463 1461 1458 1456
1495 1497 1498 1499 1500 1500 1501 1501 1501 1502 1502 1502 1501 1501 1500 1500 1499 1498 1497 1496 1495 1494 1493 1492 1491 1489 1487 1486 1484 1482 1480 1478 1475 1473 1470 1467 1464 1462 1459 1457 1454 1451 1449
1492 1494 1495 1496 1496 1497 1497 1498 1498 1498 1498 1498 1498 1497 1497 1496 1495 1494 1493 1492 1491 1490 1488 1487 1485 1484 1482 1480 1479 1477 1474 1472 1469 1467 1464 1461 1458 1455 1453 1450 1447 1444 1441